Regional Weather Roundup
Issued by NWS

Home | Current Version | Previous Version | Graphics & Text | Print | Product List | Glossary On
Versions: 1 2 3 4 5 6 7 8 9 10 11 12 13 14 15 16 17 18 19 20 21 22 23 24 25 26 27 28 29 30 31 32 33 34 35 36 37 38 39 40 41 42 43 44 45 46 47 48 49 50
047
ASUS43 KBIS 240202
RWRND

NORTH DAKOTA REGIONAL WEATHER ROUNDUP
NATIONAL WEATHER SERVICE BISMARCK ND
900 PM CDT SAT JUL 23 2016

NOTE: "FAIR" INDICATES FEW OR NO CLOUDS BELOW 12,000 FEET WITH NO
SIGNIFICANT WEATHER AND/OR OBSTRUCTIONS TO VISIBILITY.


NDZ001>003-009>011-017-240300-
NORTHWEST NORTH DAKOTA

CITY           SKY/WX    TMP DP  RH WIND       PRES   REMARKS
WILLISTON      PTCLDY    73  55  53 NW12      29.90R
MINOT          CLEAR     75  56  51 W16G24    29.80R
MINOT AFB      CLEAR     71  58  64 NW14      29.79R
$$

NDZ018>021-031>035-040>046-240300-
SOUTHWEST NORTH DAKOTA

CITY           SKY/WX    TMP DP  RH WIND       PRES   REMARKS
BISMARCK       CLEAR     79  56  45 NW6       29.83R
DICKINSON      CLEAR     73  49  42 NW14      29.91R
GARRISON         N/A     72  58  61 NW12      29.84R
HETTINGER ARPT CLEAR     78  43  28 NW14      29.94R
$$

NDZ004>008-012>016-024-026-027-054-240300-
NORTHEAST NORTH DAKOTA

CITY           SKY/WX    TMP DP  RH WIND       PRES   REMARKS
GRAND FORKS    MOCLDY    70  68  93 SW5       29.70S
GRND FRKS AFB  PTCLDY    70  69  97 SW3       29.71S
DEVILS LAKE    PTCLDY    75  62  64 W10       29.75S
$$

NDZ022-023-025-028>030-036>039-047>053-240300-
SOUTHEAST NORTH DAKOTA

CITY           SKY/WX    TMP DP  RH WIND       PRES   REMARKS
FARGO          CLOUDY    76  73  91 W7        29.70S
JAMESTOWN      PTCLDY    75  66  73 W10       29.78R
$$





USA.gov is the U.S. government's official web portal to all federal, state and local government web resources and services.